Frenchville, ME

2:18 AM EDT on June 24, 2017 (GMT -0400)
Northern Aroostook Regional

Weather History for KFVE - March, 2012

Change the Weather History Date:

Monday, March 26, 2012

  Actual Average Record
Temperature  
Mean Temperature 24 °F 27 °F  
Max Temperature 33 °F 35 °F 45 °F (2007)
Min Temperature 15 °F 19 °F 8 °F (2017)
Degree Days  
Heating Degree Days 41    
Month to date heating degree days 895  
Since 1 July heating degree days 7269  
Cooling Degree Days 0    
Month to date cooling degree days 0  
Year to date cooling degree days 0  
Moisture  
Dew Point 17 °F    
Average Humidity 75    
Maximum Humidity 100    
Minimum Humidity 55    
Precipitation  
Precipitation 0.01 in 0.06 in 0.19 in (2004)
Month to date precipitation 0.61 1.12  
Year to date precipitation 2.89 3.69  
Sea Level Pressure  
Sea Level Pressure 29.63 in    
Wind  
Wind Speed 21 mph (NW)    
Max Wind Speed 33 mph    
Max Gust Speed 47 mph    
Visibility 7 miles    
Events Fog , Snow    
T = Trace of Precipitation, MM = Missing Value Source: NWS Daily Summary

Daily Weather History Graph

Daily Weather History Graph

Search for Another Location

Airport or City:

Trip Planner

Search our weather history database for the weather conditions in past years. The results will help you decide how hot, cold, wet, or windy it might be!

Date:

Astronomy

Mar. 26, 2012 Rise Set
Actual Time 6:23 AM EDT 6:55 PM EDT
Civil Twilight 5:52 AM EDT 7:25 PM EDT
Nautical Twilight 5:16 AM EDT 8:02 PM EDT
Astronomical Twilight 4:38 AM EDT 8:40 PM EDT
Moon 7:52 AM EDT (3/26) 11:21 PM EDT (3/26)
Length of Visible Light 13h 33m
Length of Day
12h 31m
Waxing Crescent, 14% of the Moon is Illuminated
Mar 26
Waxing Crescent
Mar 30
First Quarter
Apr 6
Full
Apr 13
Last Quarter
Apr 21
New

Hourly Weather History & Observations

Time (EDT) Temp. Windchill Dew Point Humidity Pressure Visibility Wind Dir Wind Speed Gust Speed Precip Events Conditions
12:53 AM 33.1 °F 27.7 °F 33.1 °F 100% 29.55 in 0.2 mi SW 5.8 mph - N/A Fog Fog
1:53 AM 33.1 °F 26.9 °F 33.1 °F 100% 29.52 in 0.2 mi South 6.9 mph - N/A Fog Fog
2:43 AM 32.0 °F 22.1 °F 30.2 °F 93% 29.49 in 1.2 mi NNW 13.8 mph - 0.01 in Snow Light Snow
2:45 AM 32.0 °F 20.8 °F 30.2 °F 93% 29.49 in 2.0 mi NW 17.3 mph 24.2 mph 0.01 in Snow Light Snow
2:50 AM 32.0 °F 19.5 °F 30.2 °F 93% 29.50 in 2.5 mi NNW 21.9 mph 25.3 mph 0.01 in Snow Light Snow
2:53 AM 32.0 °F 20.1 °F 30.0 °F 92% 29.52 in 3.0 mi NNW 19.6 mph 26.5 mph 0.01 in Snow Light Snow
2:58 AM 32.0 °F 20.1 °F 30.2 °F 93% 29.50 in 3.0 mi NNW 19.6 mph 31.1 mph 0.00 in Snow Light Snow
3:05 AM 30.2 °F 18.9 °F 30.2 °F 100% 29.50 in 2.5 mi NNW 16.1 mph 31.1 mph 0.00 in Snow Light Snow
3:10 AM 30.2 °F 18.1 °F 28.4 °F 93% 29.50 in 3.0 mi NNW 18.4 mph 24.2 mph 0.00 in Snow Light Snow
3:12 AM 30.2 °F 17.1 °F 28.4 °F 93% 29.51 in 2.5 mi NNW 21.9 mph 27.6 mph 0.00 in Snow Light Snow
3:25 AM 28.4 °F 13.8 °F 26.6 °F 93% 29.51 in 3.0 mi NNW 25.3 mph 32.2 mph 0.00 in Snow Light Snow
3:35 AM 28.4 °F 14.7 °F 26.6 °F 93% 29.51 in 2.5 mi NW 21.9 mph 31.1 mph 0.00 in Snow Light Snow
3:49 AM 28.4 °F 16.2 °F 26.6 °F 93% 29.51 in 4.0 mi NNW 17.3 mph 29.9 mph 0.00 in Snow Light Snow
3:53 AM 28.0 °F 15.7 °F 26.1 °F 92% 29.53 in 6.0 mi NNW 17.3 mph 28.8 mph 0.00 in Snow Light Snow
4:17 AM 26.6 °F 13.8 °F 24.8 °F 93% 29.52 in 10.0 mi NNW 17.3 mph 23.0 mph 0.00 in   Mostly Cloudy
4:53 AM 26.1 °F 13.1 °F 21.0 °F 81% 29.56 in 10.0 mi NW 17.3 mph 28.8 mph 0.00 in   Mostly Cloudy
5:53 AM 24.1 °F 8.3 °F 17.1 °F 75% 29.57 in 9.0 mi NW 24.2 mph 32.2 mph 0.00 in Snow Light Snow
6:53 AM 21.0 °F 4.6 °F 10.9 °F 65% 29.61 in 10.0 mi NW 23.0 mph 36.8 mph 0.00 in   Mostly Cloudy
7:53 AM 19.0 °F 3.6 °F 7.0 °F 59% 29.65 in 10.0 mi WNW 18.4 mph 27.6 mph N/A   Overcast
8:53 AM 19.0 °F 4.5 °F 8.1 °F 62% 29.67 in 10.0 mi NW 16.1 mph 26.5 mph N/A   Mostly Cloudy
9:53 AM 19.0 °F 2.7 °F 6.1 °F 57% 29.66 in 10.0 mi NW 20.7 mph 31.1 mph N/A   Mostly Cloudy
10:09 AM 17.6 °F 3.2 °F 8.6 °F 68% 29.63 in 7.0 mi WNW 15.0 mph 29.9 mph 0.00 in Snow Light Snow
10:37 AM 17.6 °F 4.3 °F 8.6 °F 68% 29.64 in 9.0 mi NW 12.7 mph 26.5 mph 0.00 in   Overcast
10:48 AM 19.4 °F 4.1 °F 8.6 °F 63% 29.64 in 10.0 mi NNW 18.4 mph 27.6 mph 0.00 in   Overcast
10:53 AM 19.0 °F 3.6 °F 7.0 °F 59% 29.68 in 10.0 mi NW 18.4 mph 27.6 mph 0.00 in   Overcast
11:53 AM 21.0 °F 5.4 °F 8.1 °F 57% 29.67 in 10.0 mi WNW 20.7 mph 29.9 mph 0.00 in   Overcast
12:53 PM 21.0 °F 7.1 °F 9.0 °F 60% 29.67 in 9.0 mi NW 16.1 mph 28.8 mph 0.00 in   Overcast
1:53 PM 21.9 °F 6.9 °F 9.0 °F 58% 29.67 in 10.0 mi NW 19.6 mph 26.5 mph 0.00 in   Overcast
2:53 PM 23.0 °F 6.9 °F 9.0 °F 55% 29.67 in 10.0 mi NW 24.2 mph 35.7 mph N/A   Overcast
3:53 PM 23.0 °F 7.2 °F 9.0 °F 55% 29.68 in 10.0 mi NW 23.0 mph 36.8 mph N/A   Overcast
4:53 PM 23.0 °F 7.6 °F 12.0 °F 63% 29.70 in 10.0 mi NW 21.9 mph 40.3 mph 0.00 in   Overcast
5:14 PM 21.2 °F 4.2 °F 14.0 °F 74% 29.67 in 1.8 mi NW 25.3 mph 36.8 mph 0.00 in Snow Light Snow
5:16 PM 21.2 °F 4.9 °F 14.0 °F 74% 29.68 in 1.2 mi NW 23.0 mph 36.8 mph 0.00 in Snow Light Snow
5:27 PM 21.2 °F 3.0 °F 12.2 °F 68% 29.68 in 1.8 mi NNW 29.9 mph 44.9 mph 0.00 in Snow Light Snow
5:34 PM 21.2 °F 3.3 °F 10.4 °F 63% 29.68 in 10.0 mi NNW 28.8 mph 44.9 mph 0.00 in   Overcast
5:53 PM 21.0 °F 2.2 °F 10.0 °F 63% 29.73 in 10.0 mi NNW 32.2 mph 43.7 mph 0.00 in   Overcast
6:29 PM 21.2 °F 2.4 °F 10.4 °F 63% 29.70 in 5.0 mi NNW 32.2 mph 47.2 mph 0.00 in Snow Light Snow
6:53 PM 19.9 °F 2.2 °F 10.9 °F 68% 29.75 in 9.0 mi NNW 26.5 mph 36.8 mph 0.00 in   Overcast
7:53 PM 19.0 °F 1.3 °F 10.9 °F 71% 29.79 in 9.0 mi NNW 25.3 mph 33.4 mph 0.00 in   Overcast
8:53 PM 19.0 °F 4.0 °F 12.0 °F 74% 29.82 in 7.0 mi NNW 17.3 mph 27.6 mph 0.00 in Snow Light Snow
9:53 PM 18.0 °F -0.2 °F 10.0 °F 71% 29.82 in 10.0 mi NNW 25.3 mph 34.5 mph 0.00 in   Overcast
10:53 PM 17.1 °F -0.6 °F 8.1 °F 68% 29.84 in 10.0 mi NNW 23.0 mph 33.4 mph 0.00 in   Mostly Cloudy
11:53 PM 16.0 °F -3.5 °F 6.1 °F 65% 29.84 in 10.0 mi NNW 27.6 mph 40.3 mph 0.00 in   Mostly Cloudy